Weather History for KAVL - September, 2013

Change the Weather History Date:

Wednesday, September 25, 2013

  Actual Average Record
Temperature  
Mean Temperature 61 °F 63 °F  
Max Temperature 63 °F 74 °F 89 °F (1895)
Min Temperature 59 °F 52 °F 36 °F (1983)
Degree Days  
Heating Degree Days 4 3  
Month to date heating degree days 13 32  
Since 1 July heating degree days 18 34  
Cooling Degree Days 0 2  
Month to date cooling degree days 105 90  
Year to date cooling degree days 843 847  
Growing Degree Days 11 (Base 50)    
Moisture  
Dew Point 59 °F    
Average Humidity 95    
Maximum Humidity 100    
Minimum Humidity 90    
Precipitation  
Precipitation 1.11 in 0.12 in 1.93 in (1956)
Month to date precipitation 3.05 3.22  
Year to date precipitation 61.81 34.83  
Snow  
Snow 0.00 in 0.00 in 0.00 in ()
Month to date snowfall 0.0 0.0  
Since 1 July snowfall 0.0 0.0  
Since 1 September snowfall 0.0 0.0  
Snow Depth 0.00 in    
Sea Level Pressure  
Sea Level Pressure 29.93 in    
Wind  
Wind Speed 2 mph (SSE)    
Max Wind Speed 8 mph    
Max Gust Speed 10 mph    
Visibility 6 miles    
Events Fog , Rain    
T = Trace of Precipitation, MM = Missing Value Source: NWS Daily Summary

Daily Weather History Graph

Daily Weather History Graph

Search for Another Location

Airport or City:

Trip Planner

Search our weather history database for the weather conditions in past years. The results will help you decide how hot, cold, wet, or windy it might be!

Date:

Astronomy

Sep. 25, 2013 Rise Set
Actual Time 7:20 AM EDT 7:22 PM EDT
Civil Twilight 6:55 AM EDT 7:47 PM EDT
Nautical Twilight 6:25 AM EDT 8:17 PM EDT
Astronomical Twilight 5:55 AM EDT 8:46 PM EDT
Moon 11:38 PM EDT 1:14 PM EDT
Length of Visible Light 12h 52m
Length of Day
12h 01m
Waning Gibbous, 64% of the Moon is Illuminated
Sep 25
Waning Gibbous
Sep 26
Last Quarter
Oct 4
New
Oct 11
First Quarter
Oct 18
Full

Hourly Weather History & Observations

Time (EDT) Temp. Dew Point Humidity Pressure Visibility Wind Dir Wind Speed Gust Speed Precip Events Conditions
12:19 AM 62.6 °F 59.0 °F 88% 30.00 in 10.0 mi Calm Calm - N/A   Overcast
12:29 AM 62.6 °F 60.8 °F 94% 30.00 in 10.0 mi Calm Calm - N/A   Overcast
12:54 AM 63.0 °F 60.1 °F 90% 29.93 in 10.0 mi Calm Calm - N/A   Overcast
1:03 AM 62.6 °F 60.8 °F 94% 29.99 in 10.0 mi Calm Calm - N/A   Overcast
1:54 AM 62.1 °F 60.1 °F 93% 29.92 in 10.0 mi Calm Calm - N/A   Overcast
2:54 AM 62.1 °F 60.1 °F 93% 29.91 in 10.0 mi Calm Calm - N/A   Overcast
3:54 AM 62.1 °F 60.1 °F 93% 29.89 in 10.0 mi Calm Calm - N/A   Overcast
4:54 AM 62.1 °F 60.1 °F 93% 29.88 in 9.0 mi Calm Calm - 0.00 in   Overcast
5:45 AM 62.6 °F 60.8 °F 94% 29.95 in 7.0 mi Calm Calm - 0.00 in Rain Light Rain
5:54 AM 62.1 °F 60.1 °F 93% 29.89 in 7.0 mi Calm Calm - 0.00 in Rain Light Rain
6:54 AM 61.0 °F 60.1 °F 97% 29.89 in 3.0 mi Calm Calm - 0.22 in Rain Heavy Rain
7:03 AM 60.8 °F 60.8 °F 100% 29.95 in 2.5 mi Calm Calm - 0.05 in Rain Heavy Rain
7:12 AM 60.8 °F 60.8 °F 100% 29.95 in 3.0 mi Calm Calm - 0.08 in Rain Rain
7:27 AM 60.8 °F 60.8 °F 100% 29.95 in 3.0 mi Calm Calm - 0.14 in Rain Heavy Rain
7:38 AM 60.8 °F 60.8 °F 100% 29.94 in 2.0 mi Calm Calm - 0.20 in Rain Heavy Rain
7:54 AM 61.0 °F 60.1 °F 97% 29.88 in 2.0 mi Calm Calm - 0.26 in Rain Heavy Rain
8:17 AM 60.8 °F 60.8 °F 100% 29.95 in 3.0 mi SSW 4.6 mph - 0.09 in Rain Rain
8:25 AM 60.8 °F 60.8 °F 100% 29.96 in 2.5 mi South 5.8 mph - 0.12 in Rain Heavy Rain
8:54 AM 60.1 °F 59.0 °F 96% 29.92 in 2.0 mi SSE 5.8 mph - 0.29 in Rain Heavy Rain
9:05 AM 60.8 °F 59.0 °F 94% 29.96 in 2.0 mi Calm Calm - 0.07 in Rain Heavy Rain
9:24 AM 60.8 °F 59.0 °F 94% 29.96 in 2.5 mi South 3.5 mph - 0.16 in Rain Rain
9:32 AM 60.8 °F 59.0 °F 94% 29.97 in 4.0 mi Calm Calm - 0.18 in Rain Rain
9:54 AM 61.0 °F 60.1 °F 97% 29.93 in 10.0 mi SSW 6.9 mph - 0.18 in Fog , Rain Light Rain
10:16 AM 60.8 °F 60.8 °F 100% 29.98 in 5.0 mi South 5.8 mph - 0.01 in Rain Light Rain
10:54 AM 61.0 °F 60.1 °F 97% 29.93 in 5.0 mi Calm Calm - 0.02 in Rain Light Rain
11:54 AM 61.0 °F 59.0 °F 93% 29.93 in 3.0 mi Calm Calm - 0.06 in Rain Rain
12:02 PM 60.8 °F 60.8 °F 100% 29.97 in 2.5 mi Calm Calm - 0.01 in Rain Light Rain
12:28 PM 60.8 °F 60.8 °F 100% 29.97 in 2.5 mi Variable 3.5 mph - 0.02 in Rain Rain
12:38 PM 60.8 °F 60.8 °F 100% 29.97 in 2.5 mi Calm Calm - 0.04 in Rain Rain
12:45 PM 62.6 °F 60.8 °F 94% 29.97 in 2.5 mi Calm Calm - 0.05 in Rain Light Rain
12:54 PM 62.1 °F 60.1 °F 93% 29.92 in 2.5 mi East 3.5 mph - 0.06 in Rain Light Rain
12:57 PM 62.6 °F 60.8 °F 94% 29.97 in 2.5 mi Calm Calm - 0.00 in Rain Light Rain
1:54 PM 61.0 °F 59.0 °F 93% 29.90 in 2.5 mi SE 5.8 mph - 0.02 in   Overcast
2:01 PM 60.8 °F 59.0 °F 94% 29.95 in 3.0 mi SSE 4.6 mph - 0.00 in Rain Light Rain
2:54 PM 62.1 °F 60.1 °F 93% 29.88 in 3.0 mi Calm Calm - 0.00 in   Overcast
3:54 PM 61.0 °F 57.9 °F 90% 29.88 in 3.0 mi SSE 5.8 mph - 0.00 in   Overcast
4:01 PM 60.8 °F 57.2 °F 88% 29.93 in 9.0 mi SSE 5.8 mph - 0.00 in Rain Light Rain
4:49 PM 60.8 °F 59.0 °F 94% 29.93 in 6.0 mi SSE 4.6 mph - 0.00 in Rain Light Rain
4:54 PM 61.0 °F 57.9 °F 90% 29.88 in 7.0 mi SSE 6.9 mph - 0.00 in   Overcast
5:54 PM 60.1 °F 59.0 °F 96% 29.88 in 5.0 mi SE 3.5 mph - 0.00 in   Overcast
6:54 PM 60.1 °F 57.9 °F 93% 29.89 in 10.0 mi SSW 3.5 mph - N/A   Overcast
7:54 PM 60.1 °F 57.9 °F 93% 29.90 in 6.0 mi South 5.8 mph - N/A   Overcast
8:54 PM 60.1 °F 57.0 °F 90% 29.91 in 10.0 mi SE 3.5 mph - 0.00 in   Overcast
9:20 PM 60.8 °F 57.2 °F 88% 29.96 in 10.0 mi Calm Calm - N/A   Overcast
9:36 PM 59.0 °F 57.2 °F 94% 29.96 in 9.0 mi SW 3.5 mph - N/A   Overcast
9:54 PM 59.0 °F 57.0 °F 93% 29.92 in 9.0 mi SSW 3.5 mph - N/A   Overcast
10:08 PM 59.0 °F 57.2 °F 94% 29.96 in 8.0 mi Calm Calm - N/A   Overcast
10:54 PM 59.0 °F 57.0 °F 93% 29.92 in 9.0 mi Calm Calm - N/A   Overcast
11:54 PM 60.1 °F 57.0 °F 90% 29.92 in 10.0 mi Calm Calm - N/A   Overcast